Regional Weather Roundup
Issued by NWS Midland/Odessa, TX

Skip options and go directly to product.
Home | Oldest Version | Previous Version | Current Version | All | Text Only | Save Text | Print | Product List | Glossary Off

Skip product version selection by date and time.   

900
ASUS44 KMAF 292110
RWRMAF
MIDLAND AREA WEATHER ROUNDUP
NATIONAL WEATHER SERVICE MIDLAND TX
400 PM CDT FRI APR 29 2016

...IN SOUTHWEST TEXAS AND SOUTHEAST NEW MEXICO...

CITY           SKY/WX    TMP DP  RH WIND       PRES   REMARKS
ALPINE         SUNNY     78  19  11 W23G36    29.87F
ANDREWS        FAIR      80  15   9 W26G38    29.71S
ARTESIA        SUNNY     79  18  10 W25G38    29.69F
BIG SPRING     SUNNY     83  33  16 SW24G31   29.69F
CARLSBAD       SUNNY     77  11   8 W18G36    29.73F
DRYDEN           N/A     91  34  13 SW9G22    29.62F
FORT STOCKTON  SUNNY     81  30  15 VRB3      29.71F
GUAD PASS      SUNNY     67  11  11 SW30G49   29.85F
HOBBS          SUNNY     75  10   8 SW28G36   29.73F
MARFA          SUNNY     74  22  14 W18G31    29.87F
MIDLAND AIRPK  SUNNY     85  23  10 W23       29.69F
MIDLAND INTL   SUNNY     85  25  11 W22G29    29.68F
ODESSA         SUNNY     85  20   9 W25G31    29.71F
PECOS          SUNNY     83  12   7 W23G39    29.72S
PRESIDIO       FAIR      85  26  11 W15       29.74F
SEMINOLE       SUNNY     78  15   9 SW26G35   29.73S
SNYDER           N/A     84  35  17 SW24G30   29.65F
WINK           SUNNY     83  11   6 W26G38    29.70F
$$
...OTHER STATIONS IN TEXAS...

CITY           SKY/WX    TMP DP  RH WIND       PRES   REMARKS
ABILENE        SUNNY     85  45  24 W15G28    29.60F
AMARILLO       CLOUDY    52  47  83 W15       29.77R
AUSTIN         PTSUNNY   84  74  71 S20G31    29.61F HAZE
BROWNSVILLE    CLOUDY    83  77  82 SE17G28   29.61F
CORPUS CHRISTI CLOUDY    85  75  72 S23G31    29.61F
DALLAS FTW     CLOUDY    83  73  72 S10       29.56F HAZE
DEL RIO        MOSUNNY   88  65  46 E6        29.56F
EL PASO        MOSUNNY   71  19  14 W14G31    29.83F
HOUSTON INT    CLOUDY    81  73  76 S18G28    29.68F
LUBBOCK        MOSUNNY   81  11   7 W30G41    29.65F
SAN ANGELO     SUNNY     88  47  24 SW9       29.63F
SAN ANTONIO    CLOUDY    82  74  76 SE17G25   29.61F
WACO           CLOUDY    80  75  84 S18       29.58F HAZE
WICHITA FALLS  NOT AVBL
$$
...OTHER LOCATIONS IN NEW MEXICO...

CITY           SKY/WX    TMP DP  RH WIND       PRES   REMARKS
ALAMAGORDO     SUNNY     68  14  12 W7G16     29.82F
ALBUQUERQUE    PTSUNNY   55  30  38 NW18G24   29.81F
CANNON AFB     NOT AVBL
CLOVIS         SUNNY     64  39  39 W15       29.75F
HOLLOMAN AFB   SUNNY     69  16  13 VRB3      29.80F
ROSWELL        SUNNY     76  17  11 NW13G20   29.70F
RUIDOSO          N/A     57  16  19 W24G33    29.86S
SANTA FE       LGT RAIN  49  30  48 N10       29.82S
TRUTH OR CONSE CLOUDY    66  19  16 S5        29.80F
TUCUMCARI      LGT RAIN  54  49  83 N15       29.75F
$$

USA.gov is the U.S. government's official web portal to all federal, state and local government web resources and services.